Time,TemperatureF,DewpointF,PressureIn,WindDirection,WindDirectionDegrees,WindSpeedMPH,WindSpeedGustMPH,Humidity,HourlyPrecipIn,Conditions,Clouds,dailyrainin,SoftwareType,DateUTC
2013-11-02 00:01:00,76.6,73.4,29.91,SE,135,2.7,4.9,92,0.00,,,0.04,Graphweather,2013-11-02 04:01:00,
2013-11-02 00:03:00,76.6,73.4,29.91,ESE,112,2.5,6.0,92,0.00,,,0.04,Graphweather,2013-11-02 04:03:00,
2013-11-02 00:08:00,76.8,75.2,29.91,WSW,247,4.0,6.3,92,0.00,,,0.04,Graphweather,2013-11-02 04:08:00,
2013-11-02 00:13:00,76.8,75.2,29.91,ENE,67,3.4,4.7,92,0.00,,,0.04,Graphweather,2013-11-02 04:13:00,
2013-11-02 00:18:00,77.0,75.2,29.91,East,90,3.8,7.4,91,0.00,,,0.04,Graphweather,2013-11-02 04:18:00,
2013-11-02 00:24:00,77.0,75.2,29.91,East,90,2.9,5.8,91,0.00,,,0.04,Graphweather,2013-11-02 04:24:00,
2013-11-02 00:29:00,77.0,75.2,29.91,North,0,2.7,5.6,92,0.00,,,0.04,Graphweather,2013-11-02 04:29:00,
2013-11-02 00:40:00,77.0,75.2,29.91,East,90,2.0,6.0,92,0.00,,,0.04,Graphweather,2013-11-02 04:40:00,
2013-11-02 00:55:00,77.0,75.2,29.91,East,90,3.4,5.8,92,0.00,,,0.04,Graphweather,2013-11-02 04:55:00,
2013-11-02 01:03:00,77.2,75.2,29.91,ENE,67,3.4,5.4,92,0.00,,,0.04,Graphweather,2013-11-02 05:03:00,
2013-11-02 01:08:00,76.8,75.2,29.91,SE,135,3.6,6.3,92,0.00,,,0.04,Graphweather,2013-11-02 05:08:00,
2013-11-02 01:14:00,76.6,73.4,29.91,ENE,67,3.4,5.6,92,0.00,,,0.04,Graphweather,2013-11-02 05:14:00,
2013-11-02 01:19:00,76.5,75.2,29.91,East,90,2.9,5.4,93,0.00,,,0.04,Graphweather,2013-11-02 05:19:00,
2013-11-02 01:24:00,76.6,75.2,29.91,NE,45,3.4,5.8,93,0.00,,,0.04,Graphweather,2013-11-02 05:24:00,
2013-11-02 01:29:00,76.6,75.2,29.88,ENE,67,3.8,9.8,93,0.00,,,0.04,Graphweather,2013-11-02 05:29:00,
2013-11-02 01:38:00,76.6,75.2,29.88,ESE,112,3.4,5.4,93,0.00,,,0.04,Graphweather,2013-11-02 05:38:00,
2013-11-02 01:43:00,76.8,75.2,29.88,East,90,2.7,6.0,93,0.00,,,0.04,Graphweather,2013-11-02 05:43:00,
2013-11-02 01:48:00,76.6,75.2,29.88,SE,135,4.3,5.6,93,0.00,,,0.04,Graphweather,2013-11-02 05:48:00,
2013-11-02 01:54:00,76.8,75.2,29.88,NE,45,2.5,5.4,93,0.00,,,0.04,Graphweather,2013-11-02 05:54:00,
2013-11-02 01:59:00,76.8,75.2,29.85,NE,45,2.7,4.3,93,0.00,,,0.04,Graphweather,2013-11-02 05:59:00,
2013-11-02 02:04:00,76.6,75.2,29.85,ENE,67,3.4,7.2,93,0.00,,,0.04,Graphweather,2013-11-02 06:04:00,
2013-11-02 02:09:00,76.6,75.2,29.85,East,90,1.6,4.0,93,0.00,,,0.04,Graphweather,2013-11-02 06:09:00,
2013-11-02 02:25:00,76.8,75.2,29.85,East,90,1.6,4.3,93,0.00,,,0.04,Graphweather,2013-11-02 06:25:00,
2013-11-02 02:33:00,76.8,75.2,29.88,ENE,67,1.6,3.4,93,0.00,,,0.04,Graphweather,2013-11-02 06:33:00,
2013-11-02 02:38:00,76.6,75.2,29.88,East,90,1.6,5.6,93,0.00,,,0.04,Graphweather,2013-11-02 06:38:00,
2013-11-02 02:44:00,76.6,75.2,29.88,SSE,157,2.5,4.9,93,0.00,,,0.04,Graphweather,2013-11-02 06:44:00,
2013-11-02 02:49:00,76.6,75.2,29.88,ESE,112,3.1,4.3,93,0.00,,,0.04,Graphweather,2013-11-02 06:49:00,
2013-11-02 02:54:00,76.6,75.2,29.88,ESE,112,3.6,7.6,93,0.00,,,0.04,Graphweather,2013-11-02 06:54:00,
2013-11-02 02:59:00,76.6,75.2,29.88,SE,135,2.0,4.3,93,0.00,,,0.04,Graphweather,2013-11-02 06:59:00,
2013-11-02 03:08:00,76.8,75.2,29.88,NNE,22,2.7,4.7,94,0.00,,,0.04,Graphweather,2013-11-02 07:08:00,
2013-11-02 03:13:00,77.0,75.2,29.88,NE,45,2.9,5.6,93,0.00,,,0.04,Graphweather,2013-11-02 07:13:00,
2013-11-02 03:18:00,77.0,75.2,29.88,ESE,112,2.9,5.4,93,0.00,,,0.04,Graphweather,2013-11-02 07:18:00,
2013-11-02 03:23:00,77.0,75.2,29.88,East,90,2.5,6.0,93,0.00,,,0.04,Graphweather,2013-11-02 07:23:00,
2013-11-02 03:29:00,77.0,75.2,29.88,East,90,2.7,4.7,93,0.00,,,0.04,Graphweather,2013-11-02 07:29:00,
2013-11-02 03:34:00,77.0,75.2,29.88,WSW,247,2.9,6.5,93,0.00,,,0.04,Graphweather,2013-11-02 07:34:00,
2013-11-02 03:39:00,77.2,75.2,29.88,WNW,292,2.5,6.3,93,0.00,,,0.04,Graphweather,2013-11-02 07:39:00,
2013-11-02 03:44:00,77.2,75.2,29.85,East,90,1.1,4.3,93,0.00,,,0.04,Graphweather,2013-11-02 07:44:00,
2013-11-02 03:55:00,77.2,75.2,29.85,SSW,202,1.6,4.3,93,0.00,,,0.04,Graphweather,2013-11-02 07:55:00,
2013-11-02 04:03:00,77.2,75.2,29.88,ESE,112,3.4,6.5,93,0.00,,,0.04,Graphweather,2013-11-02 08:03:00,
2013-11-02 04:08:00,77.0,75.2,29.88,South,180,1.6,4.9,93,0.00,,,0.04,Graphweather,2013-11-02 08:08:00,
2013-11-02 04:13:00,77.0,75.2,29.88,East,90,1.3,7.4,93,0.00,,,0.04,Graphweather,2013-11-02 08:13:00,
2013-11-02 04:18:00,77.0,75.2,29.88,NE,45,2.0,6.9,93,0.00,,,0.04,Graphweather,2013-11-02 08:18:00,
2013-11-02 04:24:00,77.0,75.2,29.88,East,90,1.1,2.5,93,0.00,,,0.04,Graphweather,2013-11-02 08:24:00,
2013-11-02 04:29:00,77.0,75.2,29.88,East,90,1.6,3.8,93,0.00,,,0.04,Graphweather,2013-11-02 08:29:00,
2013-11-02 04:34:00,77.0,75.2,29.88,ESE,112,1.1,3.8,93,0.00,,,0.04,Graphweather,2013-11-02 08:34:00,
2013-11-02 04:39:00,77.2,75.2,29.88,SSW,202,2.5,5.6,93,0.00,,,0.04,Graphweather,2013-11-02 08:39:00,
2013-11-02 04:48:00,77.2,75.2,29.88,ENE,67,2.7,4.7,93,0.00,,,0.04,Graphweather,2013-11-02 08:48:00,
2013-11-02 04:53:00,77.2,75.2,29.88,SSW,202,2.5,4.3,93,0.00,,,0.04,Graphweather,2013-11-02 08:53:00,
2013-11-02 04:58:00,77.2,75.2,29.88,East,90,2.2,5.6,93,0.00,,,0.04,Graphweather,2013-11-02 08:58:00,
2013-11-02 05:03:00,77.4,75.2,29.88,ENE,67,2.9,5.6,93,0.00,,,0.04,Graphweather,2013-11-02 09:03:00,
2013-11-02 05:09:00,77.4,75.2,29.88,SSE,157,1.6,3.8,93,0.00,,,0.04,Graphweather,2013-11-02 09:09:00,
2013-11-02 05:14:00,77.4,75.2,29.88,East,90,2.0,3.4,93,0.00,,,0.04,Graphweather,2013-11-02 09:14:00,
2013-11-02 05:19:00,77.5,75.2,29.88,ENE,67,3.4,4.3,94,0.00,,,0.04,Graphweather,2013-11-02 09:19:00,
2013-11-02 05:24:00,77.5,75.2,29.88,ESE,112,2.7,7.6,94,0.00,,,0.04,Graphweather,2013-11-02 09:24:00,
2013-11-02 05:29:00,77.5,75.2,29.88,ESE,112,2.5,4.7,93,0.00,,,0.04,Graphweather,2013-11-02 09:29:00,
2013-11-02 05:38:00,77.7,75.2,29.88,East,90,2.5,5.8,93,0.00,,,0.04,Graphweather,2013-11-02 09:38:00,
2013-11-02 05:43:00,77.7,75.2,29.88,ESE,112,3.1,5.4,94,0.00,,,0.04,Graphweather,2013-11-02 09:43:00,
2013-11-02 05:48:00,77.5,75.2,29.88,East,90,2.7,4.3,93,0.00,,,0.04,Graphweather,2013-11-02 09:48:00,
2013-11-02 05:53:00,77.5,75.2,29.88,WNW,292,2.7,4.0,93,0.00,,,0.04,Graphweather,2013-11-02 09:53:00,
2013-11-02 05:59:00,77.5,75.2,29.88,NNE,22,2.5,4.3,93,0.00,,,0.04,Graphweather,2013-11-02 09:59:00,
2013-11-02 06:04:00,77.5,75.2,29.88,ESE,112,3.4,4.3,93,0.00,,,0.04,Graphweather,2013-11-02 10:04:00,
2013-11-02 06:09:00,77.5,75.2,29.88,East,90,2.9,4.9,93,0.00,,,0.04,Graphweather,2013-11-02 10:09:00,
2013-11-02 06:14:00,77.7,75.2,29.88,NE,45,2.7,4.0,93,0.00,,,0.04,Graphweather,2013-11-02 10:14:00,
2013-11-02 06:19:00,77.9,77.0,29.88,NNE,22,2.9,3.8,93,0.00,,,0.04,Graphweather,2013-11-02 10:19:00,
2013-11-02 06:24:00,77.9,77.0,29.88,SSW,202,2.0,4.7,93,0.00,,,0.04,Graphweather,2013-11-02 10:24:00,
2013-11-02 06:33:00,78.3,77.0,29.88,NW,315,3.1,4.0,93,0.00,,,0.04,Graphweather,2013-11-02 10:33:00,
2013-11-02 06:38:00,78.3,77.0,29.88,East,90,3.4,5.4,93,0.00,,,0.04,Graphweather,2013-11-02 10:38:00,
2013-11-02 06:43:00,78.8,77.0,29.91,East,90,2.9,4.9,92,0.00,,,0.04,Graphweather,2013-11-02 10:43:00,
2013-11-02 06:48:00,79.0,77.0,29.91,East,90,2.7,5.6,92,0.00,,,0.04,Graphweather,2013-11-02 10:48:00,
2013-11-02 06:53:00,79.0,77.0,29.91,ENE,67,2.0,4.3,92,0.00,,,0.04,Graphweather,2013-11-02 10:53:00,
2013-11-02 06:59:00,79.7,77.0,29.88,NE,45,2.7,5.6,92,0.00,,,0.04,Graphweather,2013-11-02 10:59:00,
2013-11-02 07:04:00,79.9,77.0,29.88,ESE,112,2.7,4.0,91,0.00,,,0.04,Graphweather,2013-11-02 11:04:00,
2013-11-02 07:09:00,79.9,77.0,29.88,East,90,2.5,3.6,91,0.00,,,0.04,Graphweather,2013-11-02 11:09:00,
2013-11-02 07:14:00,79.9,77.0,29.91,NNW,337,2.7,5.8,91,0.00,,,0.04,Graphweather,2013-11-02 11:14:00,
2013-11-02 07:19:00,80.8,78.8,29.91,North,0,1.6,4.9,91,0.00,,,0.04,Graphweather,2013-11-02 11:19:00,
2013-11-02 07:24:00,81.0,78.8,29.91,SE,135,3.6,5.6,90,0.00,,,0.04,Graphweather,2013-11-02 11:24:00,
2013-11-02 07:29:00,81.0,78.8,29.91,ESE,112,2.7,3.8,90,0.00,,,0.04,Graphweather,2013-11-02 11:29:00,
2013-11-02 07:38:00,83.8,80.6,29.91,East,90,2.7,4.3,88,0.00,,,0.04,Graphweather,2013-11-02 11:38:00,
2013-11-02 07:43:00,84.2,80.6,29.91,SE,135,2.2,6.7,87,0.00,,,0.04,Graphweather,2013-11-02 11:43:00,
2013-11-02 07:48:00,85.3,80.6,29.91,East,90,2.7,5.6,85,0.00,,,0.04,Graphweather,2013-11-02 11:48:00,
2013-11-02 07:54:00,85.8,80.6,29.91,ESE,112,2.9,4.7,85,0.00,,,0.04,Graphweather,2013-11-02 11:54:00,
2013-11-02 07:59:00,85.8,80.6,29.91,SSE,157,3.1,4.7,84,0.00,,,0.04,Graphweather,2013-11-02 11:59:00,
2013-11-02 08:04:00,86.7,80.6,29.91,ESE,112,2.9,4.3,82,0.00,,,0.04,Graphweather,2013-11-02 12:04:00,
2013-11-02 08:09:00,87.1,80.6,29.91,South,180,2.9,4.0,81,0.00,,,0.04,Graphweather,2013-11-02 12:09:00,
2013-11-02 08:14:00,87.6,80.6,29.94,ESE,112,2.5,3.8,79,0.00,,,0.04,Graphweather,2013-11-02 12:14:00,
2013-11-02 08:19:00,87.8,80.6,29.94,WSW,247,2.2,5.8,78,0.00,,,0.04,Graphweather,2013-11-02 12:19:00,
2013-11-02 08:24:00,87.6,80.6,29.94,SSE,157,2.9,6.0,77,0.00,,,0.04,Graphweather,2013-11-02 12:24:00,
2013-11-02 08:33:00,89.1,80.6,29.94,ESE,112,3.1,4.3,74,0.00,,,0.04,Graphweather,2013-11-02 12:33:00,
2013-11-02 08:39:00,89.2,80.6,29.94,ESE,112,3.4,7.2,75,0.00,,,0.04,Graphweather,2013-11-02 12:39:00,
2013-11-02 08:44:00,90.0,80.6,29.94,ESE,112,2.7,4.9,74,0.00,,,0.04,Graphweather,2013-11-02 12:44:00,
2013-11-02 08:49:00,90.5,82.4,29.94,East,90,2.9,4.7,75,0.00,,,0.04,Graphweather,2013-11-02 12:49:00,
2013-11-02 08:54:00,90.5,82.4,29.94,East,90,3.1,4.7,75,0.00,,,0.04,Graphweather,2013-11-02 12:54:00,
2013-11-02 08:59:00,87.8,78.8,29.91,East,90,2.5,4.7,76,0.00,,,0.04,Graphweather,2013-11-02 12:59:00,
2013-11-02 09:04:00,86.0,78.8,29.91,ENE,67,2.2,5.4,79,0.00,,,0.04,Graphweather,2013-11-02 13:04:00,
2013-11-02 09:09:00,86.2,78.8,29.91,SSE,157,2.9,5.4,80,0.00,,,0.04,Graphweather,2013-11-02 13:09:00,
2013-11-02 09:18:00,90.5,82.4,29.94,ESE,112,2.9,4.3,75,0.00,,,0.04,Graphweather,2013-11-02 13:18:00,
2013-11-02 09:24:00,89.6,80.6,29.94,ESE,112,3.1,4.9,74,0.00,,,0.04,Graphweather,2013-11-02 13:24:00,
2013-11-02 09:29:00,89.8,80.6,29.94,ESE,112,2.9,5.6,75,0.00,,,0.04,Graphweather,2013-11-02 13:29:00,
2013-11-02 09:34:00,88.7,80.6,29.94,ENE,67,2.9,5.6,74,0.00,,,0.04,Graphweather,2013-11-02 13:34:00,
2013-11-02 09:39:00,87.1,78.8,29.94,ESE,112,2.9,4.3,76,0.00,,,0.04,Graphweather,2013-11-02 13:39:00,
2013-11-02 09:44:00,84.9,78.8,29.94,ESE,112,3.6,6.5,82,0.00,,,0.04,Graphweather,2013-11-02 13:44:00,
2013-11-02 09:49:00,84.6,80.6,29.94,SSE,157,2.2,5.4,87,0.00,,,0.04,Graphweather,2013-11-02 13:49:00,
2013-11-02 09:54:00,84.7,80.6,29.94,ESE,112,1.1,4.3,87,0.00,,,0.04,Graphweather,2013-11-02 13:54:00,
2013-11-02 10:03:00,85.8,80.6,29.94,SW,225,2.0,3.6,87,0.00,,,0.04,Graphweather,2013-11-02 14:03:00,
2013-11-02 10:09:00,88.7,82.4,29.94,East,90,2.5,4.0,81,0.00,,,0.04,Graphweather,2013-11-02 14:09:00,
2013-11-02 10:14:00,88.2,80.6,29.94,East,90,2.2,4.3,79,0.00,,,0.04,Graphweather,2013-11-02 14:14:00,
2013-11-02 10:19:00,89.8,82.4,29.94,ENE,67,2.0,4.3,78,0.00,,,0.04,Graphweather,2013-11-02 14:19:00,
2013-11-02 10:24:00,90.9,82.4,29.94,East,90,3.4,4.3,76,0.00,,,0.04,Graphweather,2013-11-02 14:24:00,
2013-11-02 10:29:00,88.2,80.6,29.94,ESE,112,3.1,5.4,77,0.00,,,0.04,Graphweather,2013-11-02 14:29:00,
2013-11-02 10:38:00,87.6,82.4,29.94,ENE,67,3.1,5.6,82,0.00,,,0.04,Graphweather,2013-11-02 14:38:00,
2013-11-02 10:44:00,88.3,80.6,29.94,NE,45,3.6,5.8,78,0.00,,,0.04,Graphweather,2013-11-02 14:44:00,
2013-11-02 10:49:00,89.6,82.4,29.94,ESE,112,3.4,6.0,77,0.00,,,0.04,Graphweather,2013-11-02 14:49:00,
2013-11-02 10:54:00,90.5,82.4,29.94,ESE,112,2.9,5.4,76,0.00,,,0.04,Graphweather,2013-11-02 14:54:00,
2013-11-02 10:59:00,90.1,82.4,29.94,ESE,112,2.5,4.3,75,0.00,,,0.04,Graphweather,2013-11-02 14:59:00,
2013-11-02 11:04:00,90.3,82.4,29.94,East,90,3.1,4.9,75,0.00,,,0.04,Graphweather,2013-11-02 15:04:00,
2013-11-02 11:09:00,91.6,82.4,29.94,NNE,22,2.7,4.3,74,0.00,,,0.04,Graphweather,2013-11-02 15:09:00,
2013-11-02 11:14:00,90.5,80.6,29.91,NE,45,3.6,5.4,72,0.00,,,0.04,Graphweather,2013-11-02 15:14:00,
2013-11-02 11:24:00,87.4,78.8,29.91,ESE,112,3.1,5.8,77,0.00,,,0.04,Graphweather,2013-11-02 15:24:00,
2013-11-02 11:34:00,82.8,78.8,29.91,East,90,1.1,3.8,85,0.08,,,0.12,Graphweather,2013-11-02 15:34:00,
2013-11-02 11:39:00,81.3,78.8,29.91,ENE,67,2.5,3.4,89,0.08,,,0.12,Graphweather,2013-11-02 15:39:00,
2013-11-02 11:44:00,81.1,78.8,29.94,ESE,112,2.2,3.4,91,0.00,,,0.12,Graphweather,2013-11-02 15:44:00,
2013-11-02 11:49:00,81.0,78.8,29.94,SSE,157,2.2,2.9,91,0.00,,,0.12,Graphweather,2013-11-02 15:49:00,
2013-11-02 11:54:00,80.4,78.8,29.94,ESE,112,2.2,4.3,92,0.00,,,0.12,Graphweather,2013-11-02 15:54:00,
2013-11-02 11:59:00,80.2,77.0,29.94,East,90,2.2,3.1,91,0.00,,,0.12,Graphweather,2013-11-02 15:59:00,
2013-11-02 12:08:00,80.2,77.0,29.94,SSE,157,1.3,3.8,91,0.00,,,0.12,Graphweather,2013-11-02 16:08:00,
2013-11-02 12:14:00,80.6,78.8,29.91,ESE,112,0.9,2.2,91,0.00,,,0.12,Graphweather,2013-11-02 16:14:00,
2013-11-02 12:19:00,80.8,78.8,29.91,ENE,67,1.1,2.5,92,0.00,,,0.12,Graphweather,2013-11-02 16:19:00,
2013-11-02 12:24:00,81.5,78.8,29.91,East,90,0.0,2.2,92,0.00,,,0.12,Graphweather,2013-11-02 16:24:00,
2013-11-02 12:29:00,82.0,78.8,29.91,SE,135,0.0,2.2,92,0.00,,,0.12,Graphweather,2013-11-02 16:29:00,
2013-11-02 12:34:00,82.4,80.6,29.91,ESE,112,1.1,2.5,91,0.00,,,0.12,Graphweather,2013-11-02 16:34:00,
2013-11-02 12:39:00,82.6,80.6,29.91,ENE,67,1.3,2.7,91,0.00,,,0.12,Graphweather,2013-11-02 16:39:00,
2013-11-02 12:48:00,82.9,80.6,29.88,ESE,112,1.3,2.7,89,0.00,,,0.12,Graphweather,2013-11-02 16:48:00,
2013-11-02 12:54:00,82.9,80.6,29.88,ESE,112,1.3,3.1,89,0.00,,,0.12,Graphweather,2013-11-02 16:54:00,
2013-11-02 12:59:00,82.8,80.6,29.91,ESE,112,0.9,3.8,90,0.00,,,0.12,Graphweather,2013-11-02 16:59:00,
2013-11-02 13:04:00,82.8,80.6,29.91,SSW,202,1.6,3.8,90,0.00,,,0.12,Graphweather,2013-11-02 17:04:00,
2013-11-02 13:09:00,82.6,78.8,29.91,East,90,2.5,3.4,89,0.00,,,0.12,Graphweather,2013-11-02 17:09:00,
2013-11-02 13:14:00,82.8,80.6,29.88,ESE,112,1.6,3.8,90,0.00,,,0.12,Graphweather,2013-11-02 17:14:00,
2013-11-02 13:25:00,82.8,80.6,29.88,NNW,337,2.2,4.3,90,0.00,,,0.12,Graphweather,2013-11-02 17:25:00,
2013-11-02 13:33:00,83.1,80.6,29.88,SE,135,1.6,4.0,89,0.00,,,0.12,Graphweather,2013-11-02 17:33:00,
2013-11-02 13:39:00,82.8,78.8,29.88,South,180,2.7,4.7,87,0.00,,,0.12,Graphweather,2013-11-02 17:39:00,
2013-11-02 13:44:00,82.6,78.8,29.88,SE,135,2.0,6.3,86,0.00,,,0.12,Graphweather,2013-11-02 17:44:00,
2013-11-02 13:49:00,82.8,78.8,29.88,ENE,67,2.9,4.3,86,0.00,,,0.12,Graphweather,2013-11-02 17:49:00,
2013-11-02 13:54:00,82.9,78.8,29.88,ESE,112,2.5,3.6,86,0.00,,,0.12,Graphweather,2013-11-02 17:54:00,
2013-11-02 13:59:00,83.1,78.8,29.88,East,90,1.6,6.0,86,0.00,,,0.12,Graphweather,2013-11-02 17:59:00,
2013-11-02 14:04:00,83.3,78.8,29.88,ESE,112,2.2,3.6,86,0.00,,,0.12,Graphweather,2013-11-02 18:04:00,
2013-11-02 14:13:00,83.1,78.8,29.88,SSE,157,2.7,3.6,86,0.00,,,0.12,Graphweather,2013-11-02 18:13:00,
2013-11-02 14:19:00,82.9,78.8,29.88,East,90,2.9,3.1,86,0.00,,,0.12,Graphweather,2013-11-02 18:19:00,
2013-11-02 14:24:00,82.9,78.8,29.88,ENE,67,3.6,6.3,87,0.00,,,0.12,Graphweather,2013-11-02 18:24:00,
2013-11-02 14:29:00,82.0,77.0,29.88,ESE,112,3.8,7.4,86,0.00,,,0.12,Graphweather,2013-11-02 18:29:00,
2013-11-02 14:34:00,82.0,78.8,29.88,NW,315,3.8,6.0,87,0.00,,,0.12,Graphweather,2013-11-02 18:34:00,
2013-11-02 14:39:00,82.0,78.8,29.88,East,90,3.4,5.8,87,0.00,,,0.12,Graphweather,2013-11-02 18:39:00,
2013-11-02 14:44:00,82.0,78.8,29.85,ENE,67,3.1,5.4,88,0.00,,,0.12,Graphweather,2013-11-02 18:44:00,
2013-11-02 14:54:00,82.4,78.8,29.85,SSE,157,2.7,3.8,88,0.00,,,0.12,Graphweather,2013-11-02 18:54:00,
2013-11-02 14:59:00,82.2,78.8,29.88,SSW,202,3.4,4.0,87,0.00,,,0.12,Graphweather,2013-11-02 18:59:00,
2013-11-02 15:10:00,82.0,78.8,29.88,ESE,112,2.9,3.8,87,0.00,,,0.12,Graphweather,2013-11-02 19:10:00,
2013-11-02 15:18:00,81.1,78.8,29.88,South,180,3.6,6.0,89,0.00,,,0.12,Graphweather,2013-11-02 19:18:00,
2013-11-02 15:24:00,81.0,78.8,29.88,ESE,112,4.0,5.8,89,0.00,,,0.12,Graphweather,2013-11-02 19:24:00,
2013-11-02 15:29:00,80.8,77.0,29.85,South,180,3.4,4.9,90,0.00,,,0.12,Graphweather,2013-11-02 19:29:00,
2013-11-02 15:34:00,80.6,77.0,29.85,ESE,112,3.1,4.3,90,0.00,,,0.12,Graphweather,2013-11-02 19:34:00,
2013-11-02 15:39:00,80.6,77.0,29.85,SSE,157,3.1,5.6,90,0.00,,,0.12,Graphweather,2013-11-02 19:39:00,
2013-11-02 15:44:00,80.4,77.0,29.88,SSW,202,4.0,4.7,89,0.00,,,0.12,Graphweather,2013-11-02 19:44:00,
2013-11-02 15:49:00,80.4,77.0,29.88,ESE,112,4.3,6.3,89,0.00,,,0.12,Graphweather,2013-11-02 19:49:00,
2013-11-02 15:59:00,80.2,77.0,29.88,SSW,202,3.1,6.5,90,0.00,,,0.12,Graphweather,2013-11-02 19:59:00,
2013-11-02 16:04:00,80.1,77.0,29.88,SSW,202,3.1,3.4,91,0.00,,,0.12,Graphweather,2013-11-02 20:04:00,
2013-11-02 16:09:00,79.9,77.0,29.88,ESE,112,3.8,5.8,92,0.00,,,0.12,Graphweather,2013-11-02 20:09:00,
2013-11-02 16:14:00,79.7,78.8,29.88,ESE,112,1.6,4.0,93,0.00,,,0.12,Graphweather,2013-11-02 20:14:00,
2013-11-02 16:19:00,79.5,77.0,29.88,ESE,112,2.9,4.3,93,0.00,,,0.12,Graphweather,2013-11-02 20:19:00,
2013-11-02 16:24:00,79.3,77.0,29.88,ESE,112,2.2,4.0,93,0.00,,,0.12,Graphweather,2013-11-02 20:24:00,
2013-11-02 16:33:00,79.2,77.0,29.88,ESE,112,2.2,4.0,92,0.00,,,0.12,Graphweather,2013-11-02 20:33:00,
2013-11-02 16:39:00,78.8,77.0,29.88,SSE,157,2.2,3.8,91,0.00,,,0.12,Graphweather,2013-11-02 20:39:00,
2013-11-02 16:44:00,78.8,75.2,29.88,East,90,2.0,4.0,90,0.00,,,0.12,Graphweather,2013-11-02 20:44:00,
2013-11-02 16:49:00,78.4,75.2,29.88,ESE,112,2.7,4.0,91,0.00,,,0.12,Graphweather,2013-11-02 20:49:00,
2013-11-02 16:54:00,78.3,75.2,29.88,NE,45,2.5,5.6,90,0.00,,,0.12,Graphweather,2013-11-02 20:54:00,
2013-11-02 16:59:00,78.1,75.2,29.88,SE,135,2.5,4.9,90,0.00,,,0.12,Graphweather,2013-11-02 20:59:00,
2013-11-02 17:04:00,77.9,75.2,29.88,ESE,112,1.6,2.5,91,0.00,,,0.12,Graphweather,2013-11-02 21:04:00,
2013-11-02 17:09:00,77.9,75.2,29.88,South,180,2.7,5.6,91,0.00,,,0.12,Graphweather,2013-11-02 21:09:00,
2013-11-02 17:18:00,77.7,75.2,29.88,NE,45,2.2,5.4,92,0.00,,,0.12,Graphweather,2013-11-02 21:18:00,
2013-11-02 17:24:00,77.7,75.2,29.88,South,180,2.0,3.1,93,0.00,,,0.12,Graphweather,2013-11-02 21:24:00,
2013-11-02 17:29:00,77.5,75.2,29.88,NE,45,1.6,4.3,93,0.00,,,0.12,Graphweather,2013-11-02 21:29:00,
2013-11-02 17:34:00,77.4,75.2,29.88,SE,135,2.0,3.8,94,0.00,,,0.12,Graphweather,2013-11-02 21:34:00,
2013-11-02 17:39:00,77.4,77.0,29.88,ENE,67,2.9,4.0,95,0.00,,,0.12,Graphweather,2013-11-02 21:39:00,
2013-11-02 17:44:00,77.5,77.0,29.88,ESE,112,2.0,6.0,95,0.00,,,0.12,Graphweather,2013-11-02 21:44:00,
2013-11-02 17:53:00,77.4,75.2,29.88,SSW,202,2.7,3.6,94,0.00,,,0.12,Graphweather,2013-11-02 21:53:00,
2013-11-02 17:59:00,77.4,75.2,29.88,East,90,2.5,4.3,94,0.00,,,0.12,Graphweather,2013-11-02 21:59:00,
2013-11-02 18:04:00,77.4,75.2,29.88,East,90,2.2,3.8,94,0.00,,,0.12,Graphweather,2013-11-02 22:04:00,
2013-11-02 18:09:00,77.4,75.2,29.88,SSE,157,2.7,3.8,94,0.00,,,0.12,Graphweather,2013-11-02 22:09:00,
2013-11-02 18:14:00,77.4,75.2,29.88,East,90,3.1,5.4,94,0.00,,,0.12,Graphweather,2013-11-02 22:14:00,
2013-11-02 18:19:00,77.4,75.2,29.88,ENE,67,2.9,4.0,94,0.00,,,0.12,Graphweather,2013-11-02 22:19:00,
2013-11-02 18:24:00,77.4,75.2,29.88,SE,135,2.7,6.5,94,0.00,,,0.12,Graphweather,2013-11-02 22:24:00,
2013-11-02 18:41:00,77.5,75.2,29.88,SSE,157,2.0,4.3,94,0.00,,,0.12,Graphweather,2013-11-02 22:41:00,
2013-11-02 18:49:00,77.5,75.2,29.88,SSW,202,3.1,4.7,94,0.00,,,0.12,Graphweather,2013-11-02 22:49:00,
2013-11-02 18:54:00,77.7,75.2,29.88,East,90,2.0,5.4,94,0.00,,,0.12,Graphweather,2013-11-02 22:54:00,
2013-11-02 18:59:00,77.7,75.2,29.88,East,90,2.2,4.3,94,0.00,,,0.12,Graphweather,2013-11-02 22:59:00,
2013-11-02 19:09:00,77.9,77.0,29.88,East,90,2.0,3.6,93,0.00,,,0.12,Graphweather,2013-11-02 23:09:00,
2013-11-02 19:14:00,77.9,77.0,29.88,ESE,112,2.7,4.3,93,0.00,,,0.12,Graphweather,2013-11-02 23:14:00,
2013-11-02 19:19:00,77.9,75.2,29.88,ENE,67,1.6,2.7,92,0.00,,,0.12,Graphweather,2013-11-02 23:19:00,
2013-11-02 19:24:00,77.9,75.2,29.88,East,90,2.7,4.5,92,0.00,,,0.12,Graphweather,2013-11-02 23:24:00,
2013-11-02 19:33:00,77.9,75.2,29.91,North,0,1.3,4.3,92,0.00,,,0.12,Graphweather,2013-11-02 23:33:00,
2013-11-02 19:39:00,77.9,75.2,29.91,East,90,2.0,4.7,92,0.00,,,0.12,Graphweather,2013-11-02 23:39:00,
2013-11-02 19:44:00,78.1,75.2,29.91,East,90,1.6,3.6,92,0.00,,,0.12,Graphweather,2013-11-02 23:44:00,
2013-11-02 19:49:00,78.1,75.2,29.91,WNW,292,2.2,3.6,91,0.00,,,0.12,Graphweather,2013-11-02 23:49:00,
2013-11-02 19:54:00,78.1,75.2,29.91,SSE,157,1.3,3.8,91,0.00,,,0.12,Graphweather,2013-11-02 23:54:00,
2013-11-02 19:59:00,78.1,75.2,29.91,ESE,112,1.6,2.5,91,0.00,,,0.12,Graphweather,2013-11-02 23:59:00,
2013-11-02 22:42:00,78.1,75.2,29.91,ESE,112,1.6,2.5,91,0.00,,,0.12,Graphweather,2013-11-03 02:42:00,